Regional Weather Roundup
Issued by NWS Charleston, SC

Current Version | Previous Version | Text Only | Print | Product List | Glossary Off
Versions: 1 2 3 4 5 6 7 8 9 10 11 12 13 14 15 16 17 18 19 20 21 22 23 24 25 26 27 28 29 30 31 32 33 34 35 36 37 38 39 40 41 42 43 44 45 46 47 48 49 50
000 ASUS42 KCHS 291526 RWRCHS REGIONAL WEATHER ROUNDUP NATIONAL WEATHER SERVICE CHARLESTON SC 1100 AM EDT WED JUL 29 2015 NOTE: "FAIR" INDICATES FEW OR NO CLOUDS BELOW 12,000 FEET WITH NO SIGNIFICANT WEATHER AND/OR OBSTRUCTIONS TO VISIBILITY. NOT ALL STATIONS ARE QUALITY CONTROLLED BY THE NATIONAL WEATHER SERVICE. USE DATA WITH CAUTION...ESPECIALLY DEWPOINT OBSERVATIONS. SCZ027-030-031-034>040-042>050-291600- ...SOUTHEAST SOUTH CAROLINA... CITY SKY/WX TMP DP RH WIND PRES REMARKS N CHARLESTON MOSUNNY 86 72 62 VRB5 30.00R HX 92 WATERFRONT PRK N/A 86 75 69 VRB3 29.97S HX 95 MOUNT PLEASANT LGT RAIN 88 73 62 N3 30.00R HX 96 JOHNS ISLAND FAIR 88 75 66 NE7 30.00S HX 97 PINOPOLIS NOT AVBL MONCKS CORNER FAIR 88 72 58 CALM 30.01R HX 94 SUMMERVILLE FAIR 86 73 66 N3 30.02S HX 93 BEAUFORT MCAS PTSUNNY 87 74 64 E7 30.00S HX 95 BEAUFORT ARPT FAIR 86 75 70 CALM 30.01R HX 95 HILTON HEAD IS PTSUNNY 86 75 70 N5 30.01R HX 95 WALTERBORO SUNNY 90 70 51 CALM 30.01F HX 95 ALLENDALE FAIR 86 72 62 CALM 30.00F HX 92 ...SOUTHERN MIDLANDS AND PEE DEE... CITY SKY/WX TMP DP RH WIND PRES REMARKS GEORGETOWN NOT AVBL KINGSTREE NOT AVBL ORANGEBURG PTSUNNY 86 71 60 CALM 30.02F HX 91 BARNWELL FAIR 88 73 62 E5 30.02S HX 96 AIKEN FAIR 88 66 48 E8 30.05F HX 90 MANNING FAIR 86 63 45 CALM 30.01F COLUMBIA PTSUNNY 87 70 56 E7 30.01S HX 92 SUMTER SUNNY 87 69 55 NE6 30.01S HX 91 FLORENCE CLOUDY 87 71 58 E3 30.02F HX 93 MYRTLE BEACH MOSUNNY 88 72 58 E9 30.02S HX 94 N MYRTLE BEACH MOSUNNY 86 73 65 E5 30.00S HX 93 $$ GAZ063-065-086>088-099>101-113>116-118-119-134>141-150-291600- ...SOUTHEAST GEORGIA... CITY SKY/WX TMP DP RH WIND PRES REMARKS SAVANNAH ARPT PTSUNNY 87 71 58 CALM 30.00S HX 93 HUNTER AAF SUNNY 87 76 69 VRB5 29.98R HX 97 FORT STEWART MOSUNNY 87 73 62 NE7 29.99R HX 93 STATESBORO SUNNY 88 75 66 CALM 30.02R HX 98 SYLVANIA SUNNY 88 75 65 CALM 30.02S HX 97 CLAXTON FAIR 88 75 66 SE3 30.01R HX 97 ...CSRA...CENTRAL AND FAR SOUTHEAST GEORGIA... CITY SKY/WX TMP DP RH WIND PRES REMARKS THOMSON SUNNY 90 77 65 S6 30.05S HX 102 AUGUSTA-BUSH SUNNY 88 72 58 SE9 30.00S HX 94 AUGUSTA-DANIEL MOSUNNY 87 73 62 E6 30.02S HX 94 SWAINSBORO PTSUNNY 84 79 84 SE3 30.03S HX 96 VIDALIA PTSUNNY 82 73 74 CALM 30.02S EASTMAN FAIR 87 78 73 E3 30.03S HX 100 HAZLEHURST RAIN 84 76 76 CALM 30.00S HX 93 ALMA MOSUNNY 88 72 58 SE5 30.00R HX 94 WAYCROSS MOSUNNY 92 75 57 SE5 30.00S HX 102 JESUP FAIR 91 77 62 CALM 30.00S HX 105 BAXLEY FAIR 90 72 55 E5 30.00S HX 96 BRUNSWICK MOSUNNY 88 73 62 NE6 30.01R HX 96 SAINT SIMONS MOSUNNY 87 75 67 NE8 29.99R HX 96 $$ SCZ027-028-034-036>038-045-046-048>050-GAZ119-141-291600- ...LAKE AND SUPPLEMENTAL COASTAL OBSERVATIONS... STATION/POSITION TIME TEMP WIND PRES WAVE SWELL AIR SEA DIR/SP/G HT/PER HT/PER/DIR (UTC) (F) (DEG/KT/KT) (MB) (FT/S) (FT/S/D) UPR LAKE MARION NOT AVBL WINYAH BAY 1400 82 60/ 9 1015.0R LAKE MURRAY 1400 83 150/ 3/ 4 1015.9S ACE BASIN NERRS 1400 85 30/ 1 1016.0 FORT PULASKI 1500 83 86 40/ 5/ 8 1016.6R SAPELO ISLAND 1500 87 10/ 7 1016.0R $$ ANZ835-935-AMZ111-154-330-350-352-354-370-450-454-472-291600- ...C-MAN AND BUOY OBSERVATIONS... STATION/POSITION TIME TEMP WIND PRES WAVE SWELL AIR SEA DIR/SP/G HT/PER HT/PER/DIR (UTC) (F) (DEG/KT/KT) (MB) (FT/S) (FT/S/D) BUOY 41004 1450 83 84 30/ 10/ 12 1015.0R 3/ 7 2/ 7 BUOY 41008 1450 82 82 40/ 8/ 10 1015.7R 2/ 6 2/120/ 6 FOLLY BEACH CMAN 1500 84 60/ 7/ 9 1016.0R CAPERS NEARSHORE 1408 82 40/ 6/ 10 1015.7R FRIPP NEARSHORE 1400 84 40/ 8/ 10 1015.2R STATION/POSITION TIME TEMP WIND PRES WAVE SWELL AIR SEA DIR/SP/G HT/PER HT/PER/DIR (UTC) (F) (DEG/KT/KT) (MB) (FT/S) (FT/S/D) 5E ST. MARYS GA 1421 82 N/A 2/ 5 FRYING PAN BUOY 1450 84 84 70/ 14/ 16 1015.5R 4/ 5 2/150/ 7 BUOY 41025 NOT AVBL CAPE LOOKOUT NC 1500 81 70/ 13/ 14 1016.1R BUOY 41002 1450 82 81 230/ 17/ 19 1014.7R 6/ 7 2/ 40/10 BUOY 41010 1420 82 84 240/ 16/ 17 1014.3R ST AUGUSTINE FL 1500 80 81 20/ 10/ 11 1016.0R $$

USA.gov is the U.S. government's official web portal to all federal, state and local government web resources and services.